{"data":{"norad_id":49763,"epoch":"2026-09-20T05:12:10.854720Z","epoch_age_seconds":69431,"freshness":"FRESH","line1":"1 49763U 21115AR  26263.21679230  .00001389  00000+0  56498-4 0  9994","line2":"2 49763  53.1634 335.0909 0001065  75.5766 284.5353 15.31704576265192","mean_motion":15.31704576,"eccentricity":0.0001065,"inclination_deg":53.1634,"raan_deg":335.0909,"arg_perigee_deg":75.5766,"mean_anomaly_deg":284.5353,"bstar":5.6498e-5,"rev_number":26519,"period_min":94.01290709469,"perigee_km":469.99695049448,"apogee_km":471.45575838897,"semimajor_km":6848.8633544417,"source":"CELESTRAK","updated_at":"2026-09-20T09:00:39.411327Z"}}